STARLINK-4120 (53537 NORAD) Tracking and Keplerian Element Data

This shows tracking and keplerian element data for the satellite.

Feedback or suggestion? Click here.




ElementValue
Catalog53537
NameSTARLINK-4120
Epoch Orbit1426
Epoch Day324.75855054
Epoch Year2022
RAAN83.2583
Inclination53.2199
Eccentricity0.0002025
Argument of Perigee41.5985
Mean Anonmoly318.5161
Mean Motion15.08834802
Decay Rate-2.9E-07
L11 53537U 22101L 22324.75855054 -.00000029 00000+0 16309-4 0 9995
L22 53537 53.2199 83.2583 0002025 41.5985 318.5161 15.08834802 14261



Live tracking and technical data element details for STARLINK-4120 (NORAD 53537). STARLINK-4120 can be tracked NOW for your location showing map with azimuth and elevation plus other details from your city location.







IsCatalogInMostPopularTable: catalog: 53537, numindb: 3
Update: records affected: 1



GetName: 53537 STARLINK-4120

Hit Count: updated at: Thu, 08 Dec 2022 19:48:50 GMT